Weather in Mooresville

United States     35°35′04″N   80°48′35″W
В апреле 2022 года жителям России запретили посещать сайт meteo.paraplan.net по решению Генеральной прокуратуры. Аудитория сайта уменьшилась в 10 раз. Владельцы сайта не видят смысла в поддержке погодного сервера в таких условиях. Сайт будет закрыт в октябре.
temp.,
°C
wind,
m/s
gust,
m/s
humid.,
%
clouds,
%
prec.,
mm/h
press.,
hPa
HPBL,
m
4 october, tue
tue423:00+11ene310730 0.0 1022287
02:00+8ne38740 0.0 1021193
05:00+8n22770 0.0 102033
08:00+8wnw22860 0.0 102060
11:00+17wnw24550 0.0 1019681
14:00+22nw46370 0.0 10172019
17:00+22n56310 0.0 10151344
20:00+13n413480 0.0 1017258
5 october, wed
wed523:00+11nnw310510 0.0 1018204
02:00+10nw35552 0.0 101895
05:00+9nw35510 0.0 101796
08:00+10nw36530 0.0 1018107
11:00+18nnw46360 0.0 1018858
14:00+22nnw35380 0.0 10161365
17:00+23n34420 0.0 10151646
20:00+17n22645 0.0 101712
6 october, thu
thu623:00+14n23755 0.0 101853
02:00+13n2272100 0.0 101836
05:00+12n237465 0.0 101840
08:00+12n22751 0.0 101942
11:00+20w12500 0.0 1019512
14:00+24wsw34350 0.0 10171629
17:00+25wsw34360 0.0 10161752
20:00+18sw22510 0.0 101711
7 october, fri
fri723:00+15wnw12600 0.0 101911
02:00+14w12630 0.0 101811
05:00+13wsw22640 0.0 101811
08:00+13w22680 0.0 101918
11:00+22wsw24430 0.0 1019462
14:00+27wsw37290 0.0 10172655
17:00+27w463348 0.0 10151971
20:00+18nnw35579 0.0 101870
8 october, sat
sat823:00+15nne4107480 0.0 1020289
02:00+13ne5107832 0.0 1022346
05:00+12nne5117239 0.0 1023482
08:00+10nne5116713 0.0 1025478
11:00+15ne4446100 0.0 1026788
14:00+19nne223699 0.0 10231117
17:00+19nne22370 0.0 10221302
20:00+13e22520 0.0 102312